When you browse on this site, cookies collect data to enhance your experience and personalize the content and advertising you see.
Visit our Privacy Policy to learn more. By continuing to use the site, you agree to this use of cookies and data.
  • In Latvia
  • List of Countries
  • For 7 days
  • Water Temperature
  • Weather Map
  • Weather Widgets
  • user-avatar
    Login

    Hourly Weather Viedma

    Today, 19 November, Tuesday

    Time Temperature Precipitation Wind Pressure Humidity
    00:00 +14°C° 0 mm 5 mps 759 mmHg 47%
    01:00 +14°C° 0 mm 5 mps 758 mmHg 47%
    02:00 +14°C° 0 mm 4 mps 758 mmHg 49%
    03:00 +14°C° 0 mm 4 mps 758 mmHg 51%
    04:00 +14°C° 0 mm 5 mps 758 mmHg 52%
    05:00 +14°C° 0 mm 5 mps 758 mmHg 54%
    06:00 +16°C° 0 mm 6 mps 757 mmHg 46%
    07:00 +20°C° 0 mm 6 mps 757 mmHg 38%
    08:00 +22°C° 0 mm 7 mps 757 mmHg 30%
    09:00 +26°C° 0 mm 8 mps 756 mmHg 25%
    10:00 +29°C° 0 mm 8 mps 756 mmHg 20%
    11:00 +33°C° 0 mm 9 mps 755 mmHg 15%
    12:00 +34°C° 0 mm 9 mps 754 mmHg 13%
    13:00 +35°C° 0 mm 9 mps 753 mmHg 12%
    14:00 +37°C° 0 mm 10 mps 752 mmHg 11%
    15:00 +37°C° 0 mm 10 mps 751 mmHg 11%
    16:00 +37°C° 0 mm 10 mps 750 mmHg 12%
    17:00 +37°C° 0 mm 9 mps 749 mmHg 12%
    18:00 +33°C° 0 mm 9 mps 749 mmHg 19%
    19:00 +29°C° 0 mm 8 mps 748 mmHg 25%
    20:00 +26°C° 0 mm 8 mps 748 mmHg 32%
    21:00 +24°C° 0.2 mm 7 mps 749 mmHg 35%
    22:00 +24°C° 0.2 mm 6 mps 749 mmHg 38%
    23:00 +25°C° 0.2 mm 5 mps 749 mmHg 41%

    Tomorrow, 20 November, Wednesday

    Time Temperature Precipitation Wind Pressure Humidity
    00:00 +22°C° 0 mm 6 mps 751 mmHg 41%
    01:00 +21°C° 0 mm 7 mps 752 mmHg 41%
    02:00 +18°C° 0 mm 9 mps 753 mmHg 40%
    03:00 +17°C° 0 mm 7 mps 754 mmHg 39%
    04:00 +16°C° 0 mm 6 mps 755 mmHg 38%
    05:00 +15°C° 0 mm 5 mps 756 mmHg 36%
    06:00 +16°C° 0 mm 5 mps 757 mmHg 32%
    07:00 +17°C° 0 mm 5 mps 757 mmHg 28%
    08:00 +19°C° 0 mm 6 mps 758 mmHg 24%
    09:00 +20°C° 0 mm 5 mps 758 mmHg 21%
    10:00 +21°C° 0 mm 5 mps 758 mmHg 19%
    11:00 +21°C° 0 mm 4 mps 758 mmHg 16%
    12:00 +22°C° 0 mm 4 mps 758 mmHg 16%
    13:00 +23°C° 0 mm 4 mps 758 mmHg 15%
    14:00 +23°C° 0 mm 4 mps 758 mmHg 14%
    15:00 +23°C° 0 mm 4 mps 758 mmHg 16%
    16:00 +22°C° 0 mm 3 mps 757 mmHg 17%
    17:00 +21°C° 0 mm 3 mps 757 mmHg 18%
    18:00 +19°C° 0 mm 5 mps 757 mmHg 27%
    19:00 +16°C° 0 mm 6 mps 757 mmHg 36%
    20:00 +12°C° 0 mm 7 mps 756 mmHg 45%
    21:00 +12°C° 0 mm 7 mps 756 mmHg 48%
    22:00 +12°C° 0 mm 7 mps 756 mmHg 52%
    23:00 +12°C° 0 mm 7 mps 756 mmHg 55%

    Day after tomorrow, 21 November, Thursday

    Time Temperature Precipitation Wind Pressure Humidity
    00:00 +13°C° 0 mm 6 mps 755 mmHg 57%
    01:00 +14°C° 0 mm 6 mps 755 mmHg 58%
    02:00 +14°C° 0 mm 5 mps 755 mmHg 59%
    03:00 +14°C° 0 mm 4 mps 755 mmHg 59%
    04:00 +15°C° 0 mm 2 mps 756 mmHg 59%
    05:00 +15°C° 0 mm 1 mps 756 mmHg 59%
    06:00 +17°C° 0 mm 2 mps 756 mmHg 50%
    07:00 +19°C° 0 mm 3 mps 757 mmHg 41%
    08:00 +21°C° 0 mm 4 mps 757 mmHg 32%
    09:00 +21°C° 0 mm 6 mps 757 mmHg 30%
    10:00 +21°C° 0 mm 8 mps 758 mmHg 28%
    11:00 +22°C° 0 mm 10 mps 758 mmHg 26%
    12:00 +21°C° 0 mm 10 mps 758 mmHg 26%
    13:00 +21°C° 0 mm 9 mps 758 mmHg 25%
    14:00 +21°C° 0 mm 8 mps 758 mmHg 25%
    15:00 +20°C° 0 mm 8 mps 759 mmHg 25%
    16:00 +20°C° 0 mm 7 mps 759 mmHg 25%
    17:00 +19°C° 0 mm 6 mps 759 mmHg 26%
    18:00 +16°C° 0 mm 5 mps 760 mmHg 31%
    19:00 +15°C° 0 mm 4 mps 760 mmHg 36%
    20:00 +13°C° 0 mm 3 mps 760 mmHg 40%
    21:00 +13°C° 0 mm 3 mps 760 mmHg 44%
    22:00 +13°C° 0 mm 2 mps 761 mmHg 47%
    23:00 +13°C° 0 mm 1 mps 761 mmHg 51%

    22 November, Friday

    Time Temperature Precipitation Wind Pressure Humidity
    00:00 +12°C° 0 mm 1 mps 761 mmHg 52%
    01:00 +12°C° 0 mm 1 mps 761 mmHg 53%
    02:00 +11°C° 0 mm 1 mps 761 mmHg 55%
    03:00 +11°C° 0 mm 1 mps 761 mmHg 56%
    04:00 +11°C° 0 mm 1 mps 761 mmHg 56%
    05:00 +10°C° 0 mm 1 mps 761 mmHg 57%
    06:00 +13°C° 0 mm 1 mps 762 mmHg 47%
    07:00 +16°C° 0 mm 2 mps 762 mmHg 38%
    08:00 +19°C° 0 mm 3 mps 762 mmHg 28%
    09:00 +21°C° 0 mm 3 mps 763 mmHg 24%
    10:00 +23°C° 0 mm 4 mps 763 mmHg 21%
    11:00 +26°C° 0 mm 4 mps 763 mmHg 17%
    12:00 +26°C° 0 mm 5 mps 762 mmHg 17%
    13:00 +26°C° 0 mm 6 mps 762 mmHg 17%
    14:00 +27°C° 0 mm 7 mps 762 mmHg 17%
    15:00 +24°C° 0 mm 7 mps 761 mmHg 22%
    16:00 +23°C° 0 mm 8 mps 761 mmHg 26%
    17:00 +21°C° 0 mm 8 mps 761 mmHg 31%
    18:00 +18°C° 0 mm 8 mps 761 mmHg 38%
    19:00 +16°C° 0 mm 7 mps 761 mmHg 45%
    20:00 +14°C° 0 mm 7 mps 761 mmHg 52%
    21:00 +14°C° 0 mm 7 mps 761 mmHg 52%
    22:00 +14°C° 0 mm 7 mps 761 mmHg 53%
    23:00 +14°C° 0 mm 7 mps 761 mmHg 53%

    23 November, Saturday

    Time Temperature Precipitation Wind Pressure Humidity
    00:00 +14°C° 0 mm 7 mps 760 mmHg 54%
    01:00 +13°C° 0 mm 8 mps 760 mmHg 55%
    02:00 +13°C° 0 mm 8 mps 760 mmHg 56%
    03:00 +13°C° 0 mm 8 mps 759 mmHg 57%
    04:00 +13°C° 0 mm 8 mps 759 mmHg 57%
    05:00 +12°C° 0 mm 8 mps 759 mmHg 57%
    06:00 +15°C° 0 mm 8 mps 759 mmHg 48%
    07:00 +17°C° 0 mm 9 mps 759 mmHg 39%
    08:00 +19°C° 0 mm 9 mps 759 mmHg 30%
    09:00 +22°C° 0 mm 9 mps 758 mmHg 27%
    10:00 +23°C° 0 mm 9 mps 758 mmHg 23%
    11:00 +26°C° 0 mm 9 mps 757 mmHg 19%
    12:00 +26°C° 0 mm 8 mps 756 mmHg 20%
    13:00 +27°C° 0 mm 8 mps 756 mmHg 21%
    14:00 +27°C° 0 mm 8 mps 755 mmHg 22%
    15:00 +26°C° 0 mm 8 mps 754 mmHg 29%
    16:00 +24°C° 0 mm 9 mps 753 mmHg 35%
    17:00 +23°C° 0 mm 9 mps 753 mmHg 41%
    18:00 +22°C° 0 mm 8 mps 752 mmHg 45%
    19:00 +22°C° 0 mm 7 mps 752 mmHg 49%
    20:00 +21°C° 0 mm 6 mps 752 mmHg 53%
    21:00 +20°C° 1.2 mm 5 mps 752 mmHg 61%
    22:00 +20°C° 1.2 mm 4 mps 751 mmHg 70%
    23:00 +19°C° 1.2 mm 4 mps 751 mmHg 78%

    24 November, Sunday

    Time Temperature Precipitation Wind Pressure Humidity
    00:00 +19°C° 2.5 mm 5 mps 751 mmHg 76%
    01:00 +18°C° 2.5 mm 7 mps 750 mmHg 75%
    02:00 +20°C° 2.5 mm 8 mps 750 mmHg 73%
    03:00 +18°C° 0 mm 8 mps 750 mmHg 76%
    04:00 +17°C° 0 mm 8 mps 750 mmHg 80%
    05:00 +17°C° 0 mm 8 mps 750 mmHg 83%
    06:00 +18°C° 0 mm 7 mps 750 mmHg 77%
    07:00 +20°C° 0 mm 6 mps 750 mmHg 70%
    08:00 +22°C° 0 mm 6 mps 750 mmHg 63%
    09:00 +24°C° 0 mm 6 mps 750 mmHg 51%
    10:00 +26°C° 0 mm 6 mps 750 mmHg 39%
    11:00 +28°C° 0 mm 7 mps 750 mmHg 27%
    12:00 +29°C° 0 mm 7 mps 750 mmHg 23%
    13:00 +29°C° 0 mm 7 mps 750 mmHg 19%
    14:00 +29°C° 0 mm 7 mps 750 mmHg 15%
    15:00 +28°C° 0 mm 7 mps 751 mmHg 15%
    16:00 +28°C° 0 mm 6 mps 751 mmHg 14%
    17:00 +27°C° 0 mm 5 mps 751 mmHg 14%
    18:00 +25°C° 0 mm 4 mps 751 mmHg 20%
    19:00 +21°C° 0 mm 4 mps 751 mmHg 27%
    20:00 +19°C° 0 mm 3 mps 751 mmHg 33%
    21:00 +18°C° 0 mm 3 mps 752 mmHg 36%
    22:00 +18°C° 0 mm 3 mps 752 mmHg 40%
    23:00 +17°C° 0 mm 3 mps 753 mmHg 43%
    Show more